Weather reports worldwide

Advertisment
Usk, United Kingdom (99176): temperature & dewpoint: 03.04.2020 13:00:00 - 09.04.2020 13:00:00 (BST)Usk, United Kingdom (99176): temperature -20cm & temperature -100cm: 03.04.2020 13:00:00 - 09.04.2020 13:00:00 (BST)Usk, United Kingdom (99176): precipitation: 03.04.2020 13:00:00 - 09.04.2020 13:00:00 (BST)
Date & Time tt [°C] td [°C] tt -20cm [°C] tt -100cm [°C] rr [mm]
09.04.2020 13:00:00 - - - - -
09.04.2020 12:00:00 18,8 11,4 - - 0,0
09.04.2020 11:00:00 15,7 9,0 - - 0,0
09.04.2020 10:00:00 14,7 9,1 11,2 9,5 0,0
09.04.2020 09:00:00 11,5 9,9 - - 0,0
09.04.2020 08:00:00 8,1 8,0 - - 0,0
09.04.2020 07:00:00 6,1 5,6 - - 0,0
09.04.2020 06:00:00 6,6 6,0 - - 0,0
09.04.2020 05:00:00 7,0 6,4 - - 0,0
09.04.2020 04:00:00 7,8 7,1 - - 0,0
09.04.2020 03:00:00 8,0 7,3 - - 0,0
09.04.2020 02:00:00 8,0 7,2 - - 0,0
09.04.2020 01:00:00 8,3 7,2 - - 0,0
09.04.2020 00:00:00 9,5 7,7 - - 0,0
08.04.2020 23:00:00 10,3 8,7 - - 0,0
08.04.2020 22:00:00 11,4 9,3 - - 0,0
08.04.2020 21:00:00 12,6 9,4 - - 0,0
08.04.2020 20:00:00 16,6 10,0 - - 0,0
08.04.2020 19:00:00 20,9 7,7 - - 0,0
08.04.2020 18:00:00 21,0 7,4 - - 0,0
08.04.2020 17:00:00 21,1 8,5 - - 0,0
08.04.2020 16:00:00 21,5 7,7 - - 0,0
08.04.2020 15:00:00 19,9 5,3 - - 0,0
08.04.2020 14:00:00 19,2 5,9 - - 0,0
08.04.2020 13:00:00 18,6 8,0 - - 0,0
08.04.2020 12:00:00 18,0 7,3 - - 0,0
08.04.2020 11:00:00 16,0 8,2 - - 0,0
08.04.2020 10:00:00 11,9 6,8 10,5 9,2 0,0
08.04.2020 09:00:00 10,8 6,6 - - 0,0
08.04.2020 08:00:00 9,3 6,9 - - 0,0
08.04.2020 07:00:00 8,2 6,9 - - 0,0
08.04.2020 06:00:00 8,1 7,0 - - 0,0
08.04.2020 05:00:00 7,7 6,5 - - 0,0
08.04.2020 04:00:00 7,0 5,7 - - 0,0
08.04.2020 03:00:00 7,8 6,1 - - 0,0
08.04.2020 02:00:00 9,8 7,4 - - 0,0
08.04.2020 01:00:00 11,0 8,7 - - 0,0
08.04.2020 00:00:00 11,3 7,8 - - 0,0
07.04.2020 23:00:00 11,6 7,4 - - 0,0
07.04.2020 22:00:00 13,4 5,2 - - 0,0
07.04.2020 21:00:00 14,2 6,2 - - 0,0
07.04.2020 20:00:00 14,9 8,0 - - 0,0
07.04.2020 19:00:00 16,1 5,5 - - 0,0
07.04.2020 18:00:00 16,6 4,5 - - 0,0
07.04.2020 17:00:00 16,8 4,6 - - 0,0
07.04.2020 16:00:00 17,4 6,2 - - 0,0
07.04.2020 15:00:00 17,3 5,7 - - 0,0
07.04.2020 14:00:00 16,2 3,6 - - 0,0
07.04.2020 13:00:00 15,2 4,4 - - 0,0
07.04.2020 12:00:00 13,7 5,5 - - 0,0
07.04.2020 11:00:00 10,7 5,7 - - 0,0
07.04.2020 10:00:00 9,3 6,8 9,7 9,0 0,0
07.04.2020 09:00:00 5,1 4,4 - - 0,0
07.04.2020 08:00:00 2,2 2,0 - - 0,0
07.04.2020 07:00:00 0,0 -0,4 - - 0,0
07.04.2020 06:00:00 -0,1 -0,6 - - 0,0
07.04.2020 05:00:00 0,6 0,1 - - 0,0
07.04.2020 04:00:00 0,7 0,1 - - 0,0
07.04.2020 03:00:00 1,4 0,9 - - 0,0
07.04.2020 02:00:00 1,9 1,2 - - 0,0
07.04.2020 01:00:00 2,4 1,5 - - 0,0
07.04.2020 00:00:00 3,4 2,3 - - 0,0
06.04.2020 23:00:00 4,6 2,8 - - 0,0
06.04.2020 22:00:00 6,0 3,0 - - 0,0
06.04.2020 21:00:00 7,5 2,5 - - 0,0
06.04.2020 20:00:00 10,4 1,5 - - 0,0
06.04.2020 19:00:00 13,0 2,1 - - 0,0
06.04.2020 18:00:00 14,4 4,0 - - 0,0
06.04.2020 17:00:00 15,2 3,7 - - 0,0
06.04.2020 16:00:00 15,3 4,8 - - 0,0
06.04.2020 15:00:00 15,1 4,6 - - 0,0
06.04.2020 14:00:00 14,5 4,9 - - 0,0
06.04.2020 13:00:00 14,3 5,5 - - 0,0
06.04.2020 12:00:00 12,8 5,3 - - 0,0
06.04.2020 11:00:00 13,9 7,1 - - 0,0
06.04.2020 10:00:00 12,1 6,9 9,9 8,9 0,0
06.04.2020 09:00:00 11,4 7,5 - - 0,0
06.04.2020 08:00:00 8,3 7,6 - - 0,0
06.04.2020 07:00:00 8,6 6,6 - - 0,0
06.04.2020 06:00:00 10,4 7,8 - - 0,0
06.04.2020 05:00:00 10,5 7,9 - - 0,0
06.04.2020 04:00:00 10,4 8,2 - - 0,4
06.04.2020 03:00:00 12,3 11,5 - - 1,6
06.04.2020 02:00:00 12,3 11,5 - - 2,6
06.04.2020 01:00:00 12,3 11,2 - - 1,6
06.04.2020 00:00:00 12,2 10,1 - - 1,6
05.04.2020 23:00:00 14,7 7,9 - - 0,0
05.04.2020 22:00:00 15,7 7,4 - - 0,0
05.04.2020 21:00:00 16,2 7,3 - - 0,0
05.04.2020 20:00:00 16,2 7,2 - - 0,0
05.04.2020 19:00:00 16,7 7,1 - - 0,0
05.04.2020 18:00:00 17,8 7,5 - - 0,0
05.04.2020 17:00:00 18,1 8,0 - - 0,0
05.04.2020 16:00:00 18,1 8,0 - - 0,0
05.04.2020 15:00:00 18,8 7,4 - - 0,0
05.04.2020 14:00:00 18,8 7,8 - - 0,0
05.04.2020 13:00:00 17,8 7,1 - - 0,0
05.04.2020 12:00:00 16,0 5,7 - - 0,0
05.04.2020 11:00:00 14,2 5,2 - - 0,0
05.04.2020 10:00:00 11,9 4,3 8,7 8,7 0,0
05.04.2020 09:00:00 8,5 5,8 - - 0,0
05.04.2020 08:00:00 2,3 2,0 - - 0,0
05.04.2020 07:00:00 0,5 -0,1 - - 0,0
05.04.2020 06:00:00 1,0 0,3 - - 0,0
05.04.2020 05:00:00 1,0 0,3 - - 0,0
05.04.2020 04:00:00 1,3 0,2 - - 0,0
05.04.2020 03:00:00 2,3 0,9 - - 0,0
05.04.2020 02:00:00 3,4 1,4 - - 0,0
05.04.2020 01:00:00 4,7 2,7 - - 0,0
05.04.2020 00:00:00 6,2 2,1 - - 0,0
04.04.2020 23:00:00 7,6 2,4 - - 0,0
04.04.2020 22:00:00 9,2 2,4 - - 0,0
04.04.2020 21:00:00 10,6 2,7 - - 0,0
04.04.2020 20:00:00 12,1 2,4 - - 0,0
04.04.2020 19:00:00 13,7 3,0 - - 0,0
04.04.2020 18:00:00 14,7 3,5 - - 0,0
04.04.2020 17:00:00 14,9 3,5 - - 0,0
04.04.2020 16:00:00 15,3 4,1 - - 0,0
04.04.2020 15:00:00 14,6 5,2 - - 0,0
04.04.2020 14:00:00 13,7 4,8 - - 0,0
04.04.2020 13:00:00 13,8 6,5 - - 0,0
04.04.2020 12:00:00 12,2 6,8 - - 0,0
04.04.2020 11:00:00 9,7 6,8 - - 0,0
04.04.2020 10:00:00 8,4 7,0 8,5 8,7 0,0
04.04.2020 09:00:00 7,3 6,9 - - 0,0
04.04.2020 08:00:00 6,5 6,3 - - 0,0
04.04.2020 07:00:00 5,1 4,9 - - 0,0
04.04.2020 06:00:00 3,4 3,1 - - 0,0
04.04.2020 05:00:00 2,5 2,2 - - 0,0
04.04.2020 04:00:00 1,9 1,5 - - 0,0
04.04.2020 03:00:00 1,4 0,8 - - 0,0
04.04.2020 02:00:00 1,9 1,3 - - 0,0
04.04.2020 01:00:00 2,7 1,8 - - 0,0
04.04.2020 00:00:00 3,3 2,2 - - 0,0
03.04.2020 23:00:00 4,8 3,1 - - 0,0
03.04.2020 22:00:00 5,7 2,9 - - 0,0
03.04.2020 21:00:00 7,9 3,7 - - 0,0
03.04.2020 20:00:00 10,2 3,9 - - 0,0
03.04.2020 19:00:00 12,7 3,0 - - 0,0
03.04.2020 18:00:00 13,8 2,3 - - 0,0
03.04.2020 17:00:00 13,4 3,0 - - 0,0
03.04.2020 16:00:00 13,5 2,5 - - 0,0
03.04.2020 15:00:00 12,9 2,0 - - 0,0
03.04.2020 14:00:00 11,9 3,4 - - 0,0
03.04.2020 13:00:00 10,7 2,5 - - 0,0

tt = temperature
td = dewpoint
tt -20cm = temperature -20cm
tt -100cm = temperature -100cm
rr = precipitation

Next stations